Change the Weather History Date:

Wednesday, May 28, 2014

  Actual Average Record
Temperature  
Mean Temperature 76 °F -  
Max Temperature 82 °F 87 °F 96 °F (1953)
Min Temperature 70 °F 68 °F 50 °F (1961)
Cooling Degree Days 11    
Growing Degree Days 26 (Base 50)    
Moisture  
Dew Point 70 °F    
Average Humidity 82    
Maximum Humidity 94    
Minimum Humidity 66    
Precipitation  
Precipitation 0.59 in - - ()
Sea Level Pressure  
Sea Level Pressure 29.90 in    
Wind  
Wind Speed 11 mph (SSE)    
Max Wind Speed 23 mph    
Max Gust Speed 25 mph    
Visibility 8 miles    
Events Rain , Thunderstorm    
Averages and records for this station are not official NWS values.
T = Trace of Precipitation, MM = Missing Value Source: NWS Daily Summary

Daily Weather History Graph

Daily Weather History Graph

Search for Another Location

Airport or City:

Trip Planner

Search our weather history database for the weather conditions in past years. The results will help you decide how hot, cold, wet, or windy it might be!

Date:

Astronomy

May. 28, 2014 Rise Set
Actual Time 6:04 AM CDT 7:56 PM CDT
Civil Twilight 5:37 AM CDT 8:22 PM CDT
Nautical Twilight 5:05 AM CDT 8:55 PM CDT
Astronomical Twilight 4:31 AM CDT 9:29 PM CDT
Moon 6:05 AM CDT 7:58 PM CDT
Length of Visible Light 14h 45m
Length of Day
13h 52m
Waning Crescent, 0% of the Moon is Illuminated
May 28
Waning Crescent
May 28
New
Jun 5
First Quarter
Jun 12
Full
Jun 19
Last Quarter

Hourly Weather History & Observations

Time (CDT) Temp. Heat Index Dew Point Humidity Pressure Visibility Wind Dir Wind Speed Gust Speed Precip Events Conditions
12:15 AM 79.2 °F - 71.1 °F 76% 29.96 in 10.0 mi SSE 11.5 mph 18.4 mph N/A Thunderstorm Unknown
12:35 AM 79.0 °F - 71.1 °F 77% 29.96 in 10.0 mi South 11.5 mph 17.3 mph N/A Thunderstorm Unknown
12:55 AM 78.8 °F - 71.1 °F 77% 29.95 in 10.0 mi SSE 12.7 mph 19.6 mph N/A   Unknown
1:15 AM 79.0 °F - 71.2 °F 77% 29.94 in 10.0 mi SSE 9.2 mph 18.4 mph N/A   Unknown
1:35 AM 79.0 °F - 71.1 °F 77% 29.93 in 10.0 mi SSE 9.2 mph - N/A   Unknown
1:55 AM 79.2 °F - 70.7 °F 75% 29.93 in 10.0 mi SSE 12.7 mph 18.4 mph N/A   Unknown
2:15 AM 79.0 °F - 70.7 °F 76% 29.93 in 10.0 mi SSE 8.1 mph 18.4 mph N/A   Unknown
2:35 AM 79.0 °F - 70.7 °F 76% 29.91 in 10.0 mi SSE 9.2 mph - N/A   Unknown
2:55 AM 78.8 °F - 70.9 °F 77% 29.92 in 10.0 mi South 10.4 mph 19.6 mph N/A   Unknown
3:15 AM 78.8 °F - 70.7 °F 76% 29.91 in 10.0 mi South 12.7 mph 17.3 mph N/A   Unknown
3:35 AM 78.8 °F - 70.7 °F 76% 29.90 in 10.0 mi SSE 15.0 mph 18.4 mph N/A Thunderstorm Unknown
4:15 AM 78.6 °F - 70.7 °F 77% 29.89 in 10.0 mi SSE 10.4 mph 16.1 mph N/A   Unknown
4:35 AM 78.4 °F - 70.7 °F 77% 29.89 in 10.0 mi South 12.7 mph 17.3 mph N/A   Unknown
4:55 AM 78.3 °F - 70.9 °F 78% 29.88 in 10.0 mi SSE 12.7 mph - N/A   Unknown
5:15 AM 78.3 °F - 70.7 °F 77% 29.89 in 10.0 mi SSE 11.5 mph 18.4 mph N/A   Unknown
5:35 AM 78.3 °F - 70.9 °F 78% 29.89 in 10.0 mi SSE 11.5 mph 17.3 mph N/A   Unknown
5:50 AM 78.8 °F - 71.6 °F 78% 29.89 in 7.0 mi SSE 13.8 mph 19.6 mph N/A   Mostly Cloudy
5:55 AM 78.3 °F - 70.9 °F 78% 29.88 in 10.0 mi SSE 11.5 mph 19.6 mph N/A   Unknown
6:50 AM 78.8 °F - 71.6 °F 78% 29.89 in 7.0 mi SSE 13.8 mph 19.6 mph N/A   Mostly Cloudy
7:50 AM 78.8 °F - 71.6 °F 78% 29.91 in 7.0 mi SSE 12.7 mph 19.6 mph N/A   Mostly Cloudy
8:50 AM 78.8 °F - 71.6 °F 78% 29.92 in 7.0 mi SSE 13.8 mph 19.6 mph N/A   Mostly Cloudy
9:50 AM 80.6 °F 84.6 °F 71.6 °F 74% 29.93 in 7.0 mi SSE 13.8 mph - N/A   Mostly Cloudy
10:50 AM 82.4 °F 87.2 °F 71.6 °F 70% 29.92 in 7.0 mi SSE 16.1 mph 25.3 mph N/A   Mostly Cloudy
11:50 AM 82.4 °F 88.2 °F 73.4 °F 74% 29.94 in 7.0 mi SSE 23.0 mph - N/A   Mostly Cloudy
1:50 PM 82.4 °F 86.3 °F 69.8 °F 66% 29.92 in 7.0 mi South 16.1 mph - N/A   Mostly Cloudy
2:50 PM 82.4 °F 86.3 °F 69.8 °F 66% 29.91 in 7.0 mi SSE 13.8 mph - N/A   Mostly Cloudy
3:50 PM 78.8 °F - 71.6 °F 78% 29.90 in 7.0 mi SW 4.6 mph 20.7 mph N/A   Mostly Cloudy
4:50 PM 75.2 °F - 69.8 °F 83% 29.89 in 7.0 mi NW 8.1 mph - N/A   Mostly Cloudy
5:50 PM 73.4 °F - 69.8 °F 88% 29.86 in 7.0 mi North 3.5 mph - N/A   Mostly Cloudy
6:47 PM 75.2 °F - 69.8 °F 83% 29.87 in 1.0 mi South 9.2 mph - N/A Rain , Thunderstorm Thunderstorms and Rain
7:15 PM 71.8 °F - 69.4 °F 92% 29.86 in 5.0 mi Calm Calm - 0.01 in Rain , Thunderstorm Thunderstorms and Rain
7:35 PM 72.5 °F - 70.2 °F 92% 29.87 in 10.0 mi Calm Calm - 0.02 in Rain , Thunderstorm Light Thunderstorms and Rain
7:55 PM 72.5 °F - 70.3 °F 93% 29.89 in 2.5 mi SSE 4.6 mph - 0.09 in Rain , Thunderstorm Light Thunderstorms and Rain
8:15 PM 70.9 °F - 68.5 °F 92% 29.89 in 4.0 mi ESE 9.2 mph - 0.06 in Rain , Thunderstorm Light Thunderstorms and Rain
8:35 PM 70.9 °F - 68.9 °F 93% 29.89 in 5.0 mi East 5.8 mph - 0.10 in Rain Rain
8:55 PM 70.9 °F - 68.9 °F 93% 29.89 in 10.0 mi Calm Calm - 0.12 in Rain Light Rain
9:15 PM 71.2 °F - 69.1 °F 93% 29.89 in 4.0 mi Calm Calm - 0.05 in Rain Heavy Rain
9:35 PM 71.2 °F - 69.1 °F 93% 29.89 in 5.0 mi ESE 10.4 mph - 0.17 in Rain , Thunderstorm Rain
9:55 PM 71.6 °F - 69.8 °F 94% 29.89 in 10.0 mi SE 13.8 mph 20.7 mph 0.18 in Rain , Thunderstorm Light Thunderstorms and Rain
10:15 PM 71.1 °F - 68.9 °F 93% 29.90 in 7.0 mi SE 12.7 mph - 0.04 in Rain Rain
10:35 PM 71.1 °F - 68.9 °F 93% 29.90 in 7.0 mi SE 9.2 mph - 0.08 in Rain Rain
10:55 PM 71.4 °F - 69.3 °F 93% 29.89 in 7.0 mi SE 12.7 mph 17.3 mph 0.12 in Rain Rain
11:15 PM 71.2 °F - 69.1 °F 93% 29.90 in 10.0 mi SSE 12.7 mph 16.1 mph 0.02 in Rain , Thunderstorm Light Thunderstorms and Rain
11:35 PM 71.2 °F - 69.1 °F 93% 29.89 in 7.0 mi SSE 16.1 mph 21.9 mph 0.03 in Rain Light Rain
11:55 PM 71.6 °F - 69.3 °F 92% 29.89 in 4.0 mi South 12.7 mph 21.9 mph 0.08 in Rain Heavy Rain